Location: Goettingen
(51.5300°N, 9.9433°E)
Time: 14:04:54
(UTC+02:00)

ISS - Pass Details

Date: 24 September 2022
Orbit: 414 x 417 km, 51.6° (Epoch: 28 September)

Event Time Altitude Azimuth Distance (km) Brightness Sun altitude
Rises 21:19:54 0° 278° (W) 2,363 1.4 -19.8°
Reaches altitude 10° 21:22:00 10° 278° (W) 1,499 0.1 -20.1°
Enters shadow 21:25:11 78° 254° (WSW) 433 -3.7 -20.5°
